Location: Sternwarte Stuttgart
(48.7670°N, 9.1830°E)
Time: 08:47:56
(UTC+02:00)

Daily predictions for brighter satellites

Satellite Brightness Start Highest point End
(mag) Time Altitude Azimuth Time Altitude Azimuth Time Altitude Azimuth
Cosmos 1624 Rocket 4.1 21:42:11 10° NNW 21:47:30 86° WSW 21:52:49 10° SSE
Cosmos 192 4.4 21:47:37 10° SSW 21:52:31 86° WNW 21:57:28 10° NNE
Cosmos 1515 4.3 21:51:21 10° SSE 21:54:51 37° E 21:58:24 10° NNE
NOAA 11 4.3 21:50:13 10° SSE 21:55:37 71° ENE 22:01:03 10° N
MetOp-B 4.3 21:52:03 10° SSE 21:57:21 67° ENE 22:02:41 10° N
Helios 1A 4.5 21:55:39 10° SSW 21:59:32 36° W 22:03:26 10° NNW
CZ-3A R/B 1.9 21:58:40 10° S 22:00:24 14° SSE 22:01:31 10° ESE
H-2A R/B 2.8 21:56:04 10° SE 22:00:38 37° ENE 22:05:19 10° N
Aureole 1 Rocket 3.3 21:58:14 10° SW 22:01:13 47° WNW 22:04:08 10° NNE
Meteor 1-23 Rocket 4.3 21:57:25 10° S 22:03:01 90° S 22:08:42 10° NNE
Cosmos 2228 3.4 21:59:45 10° N 22:03:57 47° ENE 22:08:03 10° SSE
MOS 1-B Rocket 4.2 21:58:53 10° SSE 22:04:48 81° ENE 22:11:41 10° NNW
Cosmos 921 Rocket 3.1 22:00:20 10° NNW 22:04:51 87° ENE 22:09:16 10° SSE
Cosmos 2056 Rocket 3.8 22:01:59 10° NNW 22:07:07 64° WSW 22:12:10 10° S
Helios 1B rocket 3.6 22:07:11 10° N 22:11:11 48° WNW 22:15:10 10° SW
Cosmos 2278 3.8 22:05:43 10° NNW 22:11:28 80° WSW 22:17:09 10° SSE
Cosmos 2082 Rocket 2.8 22:08:15 10° S 22:13:25 37° ESE 22:18:33 10° NE
Cosmos 1441 Rocket 4.5 22:11:26 10° SW 22:14:59 42° WNW 22:18:35 10° N
SL-27 R/B 4.5 22:15:14 10° SW 22:18:36 34° WNW 22:21:57 10° N
Cosmos 2341 Rocket 4.1 22:13:44 10° N 22:20:07 86° W 22:26:31 10° S
Cosmos 1420 Rocket 4.4 22:18:05 10° NNW 22:23:17 55° ENE 22:27:54 13° SE
Terra 2.9 22:19:58 11° SE 22:24:00 32° ENE 22:28:14 10° N
Cosmos 1892 Rocket 3.5 22:22:28 10° S 22:26:54 82° E 22:31:19 10° NNE
Cosmos 1656 3.7 22:22:05 10° NNW 22:27:34 82° WSW 22:32:42 12° SSE
Cosmos 1697 Rocket 2.8 22:22:00 10° NNW 22:27:39 75° ENE 22:32:40 13° SE
Tiangong 2 2.2 22:25:53 10° WSW 22:28:40 27° S 22:30:33 16° SE
Cosmos 2218 Rocket 4.1 22:22:37 10° N 22:28:45 62° ENE 22:34:29 12° SSE
Lacrosse 5 rocket 3.0 22:26:31 10° NW 22:30:49 37° NNE 22:35:09 10° E
Cosmos 2369 4.2 22:26:18 10° NW 22:31:55 58° WSW 22:37:29 10° S
Cosmos 1602 Rocket 4.4 22:28:56 13° SSE 22:32:16 33° E 22:36:09 10° NNE
Cosmos 1606 Rocket 4.5 22:29:41 10° NNW 22:33:50 46° W 22:37:57 10° SSW
SPOT 5 2.7 22:30:26 10° S 22:34:44 76° WSW 22:39:11 10° NNW
SL-16 R/B 3.7 22:32:00 10° NNW 22:36:47 27° NE 22:41:32 10° ESE
Meteor 1-4 Rocket 2.5 22:34:40 10° N 22:38:17 71° ENE 22:41:00 16° SSE
Cosmos 1452 Rocket 3.6 22:33:40 10° NNW 22:38:57 80° WSW 22:43:37 13° SSE
SL-24 DEB 4.4 22:38:44 10° S 22:43:20 76° W 22:48:02 10° N
USA 229 DEB 3.9 22:36:31 10° NW 22:43:41 77° NE 22:49:59 15° SE
USA 229 3.9 22:36:37 10° NW 22:43:46 77° NE 22:50:05 15° SE
Cosmos 1833 Rocket 2.7 22:41:14 10° S 22:46:45 61° ESE 22:52:19 10° NE
ERS-1 Rocket 4.3 22:43:11 10° SSW 22:47:45 35° W 22:52:22 10° NNW
SL-08 RB Rocket 3.9 22:43:48 12° S 22:47:58 68° WSW 22:52:28 10° NNW
SPOT 1/Viking Rocket 3.7 22:47:35 13° S 22:52:17 76° WSW 22:57:28 10° NNW
Cosmos 2181 Rocket 4.2 22:46:47 10° SSW 22:53:08 76° W 22:59:26 10° N
USA 234 4.4 22:47:57 10° ENE 22:54:04 44° N 23:00:10 10° WNW
USA 245 3.9 22:55:00 13° SSW 22:56:42 25° W 22:58:40 10° NW
CARTOSAT-1 3.7 22:55:32 19° SSE 22:58:31 62° ENE 23:02:49 10° N
Meteor 2-21 4.4 22:53:04 10° N 22:59:09 89° WSW 23:04:16 15° S
Cosmos 389 Rocket 4.0 22:57:59 10° NNE 23:00:51 23° ENE 23:02:26 17° ESE
Cosmos 2058 Rocket 4.3 22:58:00 10° NNW 23:02:08 39° W 23:06:15 10° SSW
COSMOS 2487 3.3 22:59:03 10° SW 23:02:32 51° WNW 23:06:03 10° NNE
Meteor 2-21 Rocket 4.4 22:57:48 10° N 23:03:54 82° E 23:08:40 17° SSE
Iridium 2 4.2 23:01:57 10° N 23:05:38 45° E 23:07:34 24° SE
Cosmos 1066 Rocket 4.3 23:01:52 10° SSW 23:07:25 83° W 23:13:09 10° N
IGS 5A 3.5 23:06:40 22° SSE 23:09:18 74° ENE 23:13:29 10° N
Orbus 7S? 4.0 23:01:41 10° NW 23:09:57 87° NE 23:12:36 20° ESE
Cosmos 468 4.5 23:05:04 10° SSW 23:10:18 74° ESE 23:15:37 10° NNE
ATLAS CENTAUR R/B 2.3 23:07:31 10° NNW 23:10:58 35° NE 23:13:28 16° ESE
Cosmos 2360 Rocket 4.0 23:10:26 10° N 23:14:57 24° NE 23:19:27 10° E
Cosmos 1980 Rocket 2.2 23:11:03 10° NNW 23:16:44 79° WSW 23:20:31 22° SSE
ISS -3.0 23:14:10 10° W 23:17:25 53° N 23:20:39 10° ENE
Cosmos 1271 Rocket 2.7 23:13:45 10° N 23:17:41 79° ENE 23:19:47 26° SSE
Cosmos 1842 3.5 23:17:32 26° SSE 23:19:28 51° E 23:23:19 10° NNE
Cosmos 1812 Rocket 3.7 23:17:29 10° NNW 23:21:59 76° W 23:24:49 22° S
H-2A R/B 2.2 23:20:19 22° S 23:23:12 80° WSW 23:27:45 10° NNW
CZ-4C R/B 3.8 23:22:23 25° ESE 23:23:56 41° ENE 23:27:26 10° N
Cosmos 158 Rocket 4.1 23:19:47 16° S 23:24:05 65° ESE 23:29:26 10° NNE
Cosmos 2322 Rocket 2.7 23:22:49 10° NNW 23:28:26 54° ENE 23:32:15 20° SE
CZ-4 R/B 4.1 23:23:36 10° NNE 23:28:34 55° E 23:31:28 24° S
Cosmos 1544 3.0 23:26:30 10° N 23:30:09 88° ENE 23:31:44 32° S
Cosmos 2366 rocket 4.5 23:25:08 10° NNW 23:31:08 55° W 23:36:11 15° SSW
CZ-4B R/B 3.8 23:27:39 10° NNE 23:32:38 51° E 23:35:26 25° SSE
Cosmos 1626 Rocket 4.1 23:30:33 13° SSW 23:34:17 55° WNW 23:38:33 10° N
Meteor 1-21 4.2 23:34:34 17° S 23:39:01 90° SW 23:44:51 10° NNE
H-2A R/B 3.3 23:36:08 12° SSW 23:40:06 33° W 23:44:42 10° NNW
CZ-2C R/B 4.1 23:42:01 10° NE 23:46:24 23° E 23:48:25 19° ESE
Cosmos 1953 2.3 23:42:23 10° N 23:46:30 81° E 23:48:11 34° SSE
Cosmos 1953 Rocket 3.9 23:45:57 31° SSE 23:47:46 51° E 23:52:05 10° NNE
Cosmos 1825 Rocket 3.5 23:46:07 31° S 23:48:05 70° E 23:52:25 10° NNE
Meteor 2-8 Rocket 4.4 23:49:35 23° S 23:53:33 78° E 23:59:43 10° NNE
